Snowfall_Accumulation
0.0 0.0 0.0 0.0 0.0 0.0 0.0 0.0 0.0 0.0 0.0 0.0 0.0 0.0 0.0 0.0 0.0 0.0 0.0 nan nan nan nan nan nan nan nan nan nan nan nan nan nan nan nan nan nan nan nan nan nan nan nan
0.0 0.0 0.0 0.0 0.0 0.0 0.0 0.0 0.0 0.0 0.0 0.0 0.0 0.0 0.0 0.0 0.0 0.0 0.0 0.0 nan nan nan nan nan nan nan nan nan nan nan nan nan nan nan nan nan nan nan nan nan nan nan
0.0 0.0 0.0 0.0 0.0 0.0 0.0 0.0 0.0 0.0 0.0 0.0 0.0 0.0 0.0 0.0 0.0 0.0 0.0 0.0 0.0 nan nan nan nan nan nan nan nan nan nan nan nan nan nan nan nan nan nan nan nan nan nan
0.0 0.0 0.0 0.0 0.0 0.0 0.0 0.0 0.0 0.0 0.0 0.0 0.0 0.0 0.0 0.0 0.0 0.0 0.0 0.0 0.0 0.0 0.0 nan nan nan nan nan nan nan nan nan nan nan nan nan nan nan nan nan nan nan nan
0.0 0.0 0.0 0.0 0.0 0.0 0.0 0.0 0.0 0.0 0.0 0.0 0.0 0.0 0.0 0.0 0.0 0.0 0.0 0.0 0.0 0.0 0.0 nan nan nan nan nan nan nan nan nan nan nan nan nan nan nan nan nan nan nan nan
0.0 0.0 0.0 0.0 0.0 0.0 0.0 0.0 0.0 0.0 0.0 0.0 0.0 0.0 0.0 0.0 0.0 0.0 0.0 0.0 0.0 0.0 0.0 0.0 0.0 0.0 nan nan nan nan nan nan nan nan nan nan nan nan nan nan nan nan nan
0.0 0.0 0.0 0.0 0.0 0.0 0.0 0.0 0.0 0.0 0.0 0.0 0.0 0.0 0.0 0.0 0.0 0.0 0.0 0.0 0.0 0.0 0.0 0.0 0.0 0.0 0.0 nan nan nan nan nan nan nan nan nan nan nan nan nan nan nan nan
0.0 0.0 0.0 0.0 0.0 0.0 0.0 0.0 0.0 0.0 0.0 0.0 0.0 0.0 0.0 0.0 0.0 0.0 0.0 0.0 0.0 0.0 0.0 0.0 0.0 0.0 0.0 0.0 0.0 nan nan nan nan nan nan nan nan nan nan nan nan nan nan
0.0 0.0 0.0 0.0 0.0 0.0 0.0 0.0 0.0 0.0 0.0 0.0 0.0 0.0 0.0 0.0 0.0 0.0 0.0 0.1 0.1 0.1 0.1 0.0 0.0 0.0 0.0 0.0 0.0 0.0 nan nan nan nan nan nan nan nan nan nan nan nan nan
0.0 0.0 0.0 0.0 0.0 0.0 0.0 0.0 0.0 0.0 0.0 0.0 0.0 0.0 0.0 0.0 0.0 0.8 0.4 0.3 0.2 0.1 0.1 0.0 0.0 0.0 0.0 0.0 nan nan nan nan nan nan nan nan nan nan nan nan nan nan nan
0.0 0.0 0.0 0.0 0.0 0.0 0.0 0.0 0.0 0.0 0.0 0.0 0.0 0.0 0.0 0.0 0.0 0.3 1.5 1.2 0.6 0.5 0.2 0.0 0.0 0.0 0.0 0.0 0.0 0.0 nan nan nan nan nan nan nan nan nan nan nan nan nan
0.0 0.0 0.0 0.0 0.0 0.0 0.0 0.0 0.0 0.0 0.0 0.0 0.0 0.0 0.0 0.0 0.1 0.1 0.7 0.8 0.7 1.5 0.7 0.2 0.0 0.0 0.0 0.0 0.0 nan nan nan nan nan nan nan nan nan nan nan nan nan nan
0.0 0.0 0.0 0.0 0.0 0.0 0.0 0.0 0.0 0.0 0.0 0.0 0.0 0.0 0.0 0.0 0.0 0.0 0.2 1.7 2.2 3.5 2.0 0.8 0.4 0.1 0.0 0.0 0.1 nan nan nan nan nan nan nan nan nan nan nan nan nan nan
0.0 0.0 0.0 0.0 0.0 0.0 0.0 0.0 0.0 0.0 0.0 0.1 0.0 0.0 0.2 0.2 0.1 0.0 0.0 0.8 4.6 6.1 4.1 2.1 1.1 1.1 1.1 0.9 0.8 nan 0.2 nan nan nan nan nan nan nan nan nan nan nan nan
0.0 0.0 0.0 0.0 0.0 0.0 0.0 0.0 0.2 0.0 0.1 0.0 0.0 0.0 0.2 0.2 0.1 0.0 0.0 0.0 0.2 3.0 4.7 4.7 3.1 2.2 2.3 1.6 1.4 0.5 0.3 nan nan nan nan nan nan nan nan nan nan nan nan
0.0 0.1 0.0 0.0 0.0 0.0 0.0 0.0 0.2 0.2 0.1 0.4 0.2 0.0 0.1 0.3 0.1 0.0 0.0 0.0 0.0 0.1 1.5 2.7 2.7 2.7 2.3 2.2 2.0 1.2 0.8 nan nan nan nan nan nan nan nan nan nan nan nan
0.1 0.1 0.1 0.1 0.1 0.1 0.1 0.1 0.1 0.1 0.1 0.2 0.1 0.1 0.2 0.1 0.6 0.5 0.3 0.0 0.0 0.1 1.4 4.8 2.9 3.5 4.8 4.1 4.2 2.4 2.0 1.5 1.0 nan nan nan nan nan nan nan nan nan nan
0.3 0.6 0.3 0.5 0.3 0.2 0.1 0.1 0.2 0.3 0.3 0.3 0.4 0.3 0.5 0.1 0.3 0.2 0.6 0.2 0.2 0.5 1.7 3.9 5.0 7.7 4.6 3.8 3.9 3.6 3.9 2.6 1.8 nan nan nan nan nan nan nan nan nan nan
2.4 1.3 0.6 0.6 1.1 1.4 1.3 0.8 0.7 1.0 0.6 0.7 0.7 0.5 0.8 0.4 0.7 1.1 0.6 1.0 1.2 0.9 1.7 4.2 7.3 5.4 6.2 6.3 6.3 5.7 4.9 3.7 2.4 nan nan nan nan nan nan nan nan nan nan
2.6 2.3 1.9 2.5 2.4 2.3 2.1 2.3 1.6 1.9 1.8 1.6 1.3 0.7 0.7 0.5 0.5 0.6 0.6 1.0 1.3 1.9 2.3 3.3 4.6 5.6 5.2 6.6 5.2 5.2 5.6 4.5 3.9 2.7 nan nan nan nan nan nan nan nan nan
4.5 4.5 4.1 3.4 3.0 2.4 1.4 1.6 1.3 1.4 1.5 2.2 2.2 1.6 1.3 0.8 nan nan 0.9 1.5 1.4 1.7 2.2 2.5 2.6 2.7 2.9 3.9 3.5 4.6 4.5 4.2 4.3 3.1 2.6 2.1 1.4 0.9 0.6 nan nan nan nan
7.4 5.8 4.4 3.2 2.7 1.8 nan nan 0.7 0.8 1.1 1.5 2.2 2.3 1.9 1.1 0.7 nan nan nan nan 1.0 1.9 2.1 2.1 1.7 1.9 2.3 3.2 3.5 4.0 5.5 6.5 2.1 1.8 1.9 0.9 0.8 0.4 0.1 nan nan nan
5.7 6.2 5.0 3.0 3.0 1.7 nan nan nan 1.1 1.2 1.2 1.3 1.4 1.9 1.3 0.3 0.4 nan nan nan nan nan 0.3 0.8 1.1 1.7 1.2 1.2 2.1 2.4 2.7 2.5 1.6 1.6 2.7 1.3 1.3 0.5 0.0 nan nan nan
6.1 3.8 3.9 3.8 3.2 2.7 nan nan nan 2.3 2.6 2.9 1.7 1.5 0.7 0.6 0.3 0.3 0.2 0.3 0.3 0.5 0.3 0.1 0.2 0.3 0.4 0.8 0.8 0.9 1.7 2.0 3.6 4.3 2.1 8.3 2.3 2.0 1.4 1.0 nan nan nan
3.4 3.6 3.5 3.5 2.2 3.8 nan nan 2.7 2.9 2.3 2.7 2.5 1.8 1.5 1.0 nan nan 0.6 0.5 0.5 0.4 nan nan nan nan nan nan nan 2.6 10.3 14.0 9.6 3.4 2.2 2.6 2.4 2.8 3.1 2.3 1.7 nan nan
4.6 3.1 3.1 3.4 1.8 3.1 nan nan nan 1.4 1.4 2.3 1.9 2.2 1.1 1.0 nan nan 1.1 0.9 1.4 1.1 1.0 1.7 1.1 0.8 nan nan nan 0.6 2.8 12.4 9.5 11.0 3.1 7.2 5.1 6.3 10.3 5.9 3.7 1.9 0.8
Water_Equivalent
0.00 0.00 0.00 0.00 0.00 0.00 0.00 0.00 0.00 0.00 0.00 0.00 0.00 0.00 0.00 0.00 0.00 0.00 0.00 nan nan nan nan nan nan nan nan nan nan nan nan nan nan nan nan nan nan nan nan nan nan nan nan
0.00 0.00 0.00 0.00 0.00 0.00 0.00 0.00 0.00 0.00 0.00 0.00 0.00 0.00 0.00 0.00 0.00 0.00 0.00 0.00 nan nan nan nan nan nan nan nan nan nan nan nan nan nan nan nan nan nan nan nan nan nan nan
0.00 0.00 0.00 0.00 0.00 0.00 0.00 0.00 0.00 0.00 0.00 0.00 0.00 0.00 0.00 0.00 0.00 0.00 0.00 0.00 0.00 nan nan nan nan nan nan nan nan nan nan nan nan nan nan nan nan nan nan nan nan nan nan
0.00 0.00 0.00 0.00 0.00 0.00 0.00 0.00 0.00 0.00 0.00 0.00 0.00 0.00 0.00 0.00 0.00 0.00 0.00 0.00 0.00 0.00 0.00 nan nan nan nan nan nan nan nan nan nan nan nan nan nan nan nan nan nan nan nan
0.00 0.00 0.00 0.00 0.00 0.00 0.00 0.00 0.00 0.00 0.00 0.00 0.00 0.00 0.00 0.00 0.00 0.00 0.00 0.00 0.00 0.00 0.00 nan nan nan nan nan nan nan nan nan nan nan nan nan nan nan nan nan nan nan nan
0.00 0.00 0.00 0.00 0.00 0.00 0.00 0.00 0.00 0.00 0.00 0.00 0.00 0.00 0.00 0.00 0.00 0.00 0.00 0.00 0.00 0.00 0.00 0.00 0.00 0.00 nan nan nan nan nan nan nan nan nan nan nan nan nan nan nan nan nan
0.00 0.00 0.00 0.00 0.00 0.00 0.00 0.00 0.00 0.00 0.00 0.00 0.00 0.00 0.00 0.00 0.00 0.00 0.00 0.00 0.00 0.00 0.00 0.00 0.00 0.00 0.00 nan nan nan nan nan nan nan nan nan nan nan nan nan nan nan nan
0.00 0.00 0.00 0.00 0.00 0.00 0.00 0.00 0.00 0.00 0.00 0.00 0.00 0.00 0.00 0.00 0.00 0.00 0.00 0.00 0.00 0.00 0.00 0.00 0.00 0.00 0.00 0.00 0.00 nan nan nan nan nan nan nan nan nan nan nan nan nan nan
0.00 0.00 0.00 0.00 0.00 0.00 0.00 0.00 0.00 0.00 0.00 0.00 0.00 0.00 0.00 0.00 0.00 0.00 0.00 0.03 0.02 0.04 0.03 0.00 0.00 0.00 0.00 0.00 0.00 0.00 nan nan nan nan nan nan nan nan nan nan nan nan nan
0.00 0.00 0.00 0.00 0.00 0.00 0.00 0.00 0.00 0.00 0.00 0.00 0.00 0.00 0.00 0.00 0.00 0.21 0.13 0.10 0.06 0.03 0.02 0.00 0.00 0.00 0.00 0.00 nan nan nan nan nan nan nan nan nan nan nan nan nan nan nan
0.00 0.00 0.00 0.00 0.00 0.00 0.00 0.00 0.00 0.00 0.00 0.00 0.00 0.00 0.00 0.00 0.00 0.12 0.32 0.28 0.23 0.20 0.08 0.00 0.00 0.00 0.00 0.00 0.00 0.00 nan nan nan nan nan nan nan nan nan nan nan nan nan
0.00 0.00 0.00 0.00 0.00 0.00 0.00 0.00 0.00 0.00 0.00 0.00 0.00 0.00 0.00 0.00 0.03 0.03 0.23 0.17 0.15 0.28 0.14 0.04 0.00 0.00 0.00 0.00 0.00 nan nan nan nan nan nan nan nan nan nan nan nan nan nan
0.00 0.00 0.00 0.00 0.00 0.00 0.00 0.00 0.00 0.00 0.00 0.00 0.00 0.01 0.00 0.00 0.00 0.00 0.06 0.33 0.38 0.55 0.37 0.17 0.08 0.02 0.00 0.01 0.03 nan nan nan nan nan nan nan nan nan nan nan nan nan nan
0.00 0.00 0.00 0.00 0.00 0.00 0.00 0.00 0.00 0.01 0.00 0.04 0.00 0.01 0.07 0.05 0.02 0.01 0.01 0.18 0.79 0.88 0.65 0.36 0.23 0.23 0.24 0.19 0.20 nan 0.06 nan nan nan nan nan nan nan nan nan nan nan nan
0.00 0.00 0.01 0.01 0.00 0.00 0.00 0.00 0.05 0.01 0.03 0.01 0.01 0.01 0.06 0.06 0.02 0.00 0.00 0.00 0.04 0.51 0.76 0.77 0.50 0.43 0.45 0.36 0.36 0.11 0.07 nan nan nan nan nan nan nan nan nan nan nan nan
0.01 0.02 0.01 0.01 0.01 0.01 0.01 0.01 0.05 0.06 0.01 0.11 0.05 0.01 0.03 0.07 0.03 0.00 0.00 0.00 0.00 0.02 0.27 0.47 0.48 0.48 0.44 0.45 0.46 0.27 0.16 nan nan nan nan nan nan nan nan nan nan nan nan
0.02 0.03 0.03 0.03 0.03 0.03 0.02 0.02 0.03 0.03 0.03 0.04 0.03 0.03 0.04 0.03 0.14 0.13 0.07 0.02 0.00 0.01 0.25 0.74 0.52 0.62 0.89 0.73 0.87 0.47 0.40 0.29 0.20 nan nan nan nan nan nan nan nan nan nan
0.08 0.21 0.11 0.14 0.08 0.05 0.04 0.03 0.06 0.07 0.07 0.08 0.10 0.08 0.12 0.03 0.08 0.05 0.16 0.06 0.05 0.10 0.32 0.59 0.77 1.17 0.77 0.66 0.64 0.59 0.67 0.50 0.33 nan nan nan nan nan nan nan nan nan nan
0.81 0.44 0.19 0.16 0.31 0.38 0.36 0.20 0.16 0.24 0.15 0.16 0.16 0.11 0.19 0.08 0.16 0.26 0.14 0.22 0.26 0.17 0.32 0.68 0.95 0.86 0.98 0.98 0.97 0.92 0.76 0.56 0.42 nan nan nan nan nan nan nan nan nan nan
0.78 0.71 0.59 0.78 0.72 0.71 0.61 0.70 0.39 0.45 0.46 0.39 0.33 0.19 0.19 0.12 0.12 0.13 0.13 0.19 0.23 0.34 0.40 0.53 0.64 0.73 0.69 0.91 0.79 0.73 0.76 0.65 0.55 0.42 nan nan nan nan nan nan nan nan nan
1.26 1.19 1.06 0.82 0.71 0.56 0.34 0.38 0.32 0.32 0.31 0.44 0.43 0.32 0.27 0.21 nan nan 0.17 0.27 0.25 0.29 0.37 0.38 0.36 0.35 0.36 0.51 0.49 0.66 0.62 0.51 0.49 0.39 0.34 0.27 0.19 0.12 0.08 nan nan nan nan
1.42 1.19 0.92 0.72 0.58 0.42 nan nan 0.15 0.16 0.22 0.27 0.40 0.43 0.38 0.25 0.15 nan nan nan nan 0.16 0.26 0.34 0.31 0.23 0.22 0.34 0.47 0.50 0.51 0.68 0.76 0.27 0.23 0.24 0.13 0.12 0.07 0.03 nan nan nan
1.14 1.15 0.87 0.61 0.62 0.36 nan nan nan 0.22 0.21 0.22 0.23 0.23 0.32 0.23 0.09 0.08 nan nan nan nan nan 0.05 0.11 0.16 0.19 0.15 0.15 0.24 0.29 0.40 0.37 0.23 0.23 0.37 0.21 0.23 0.11 0.01 nan nan nan
1.28 0.80 0.87 0.78 0.65 0.77 nan nan nan 0.41 0.40 0.44 0.27 0.24 0.11 0.10 0.06 0.04 0.04 0.04 0.03 0.07 0.04 0.02 0.03 0.05 0.06 0.12 0.11 0.13 0.21 0.22 0.49 0.62 0.35 1.11 0.35 0.31 0.25 0.21 nan nan nan
0.50 0.54 0.68 0.67 0.46 0.88 nan nan 0.46 0.48 0.34 0.47 0.45 0.35 0.27 0.19 nan nan 0.08 0.07 0.07 0.05 nan nan nan nan nan nan nan 0.54 2.03 2.59 1.50 0.53 0.41 0.46 0.42 0.41 0.52 0.38 0.35 nan nan
0.69 0.54 0.46 0.53 0.50 0.58 nan nan nan 0.30 0.29 0.44 0.32 0.41 0.34 0.19 nan nan 0.15 0.12 0.20 0.15 0.14 0.39 0.18 0.14 nan nan nan 0.10 0.56 2.02 1.45 1.55 0.49 0.87 0.77 0.96 1.15 0.97 0.60 0.39 0.20
SL_Ratio
nan nan nan nan nan nan nan nan nan nan nan nan nan nan nan nan nan nan nan nan nan nan nan nan nan nan nan nan nan nan nan nan nan nan nan nan nan nan nan nan nan nan nan
nan nan nan nan nan nan nan nan nan nan nan nan nan nan nan nan nan nan nan nan nan nan nan nan nan nan nan nan nan nan nan nan nan nan nan nan nan nan nan nan nan nan nan
nan nan nan nan nan nan nan nan nan nan nan nan nan nan nan nan nan nan nan nan nan nan nan nan nan nan nan nan nan nan nan nan nan nan nan nan nan nan nan nan nan nan nan
nan nan nan nan nan nan nan nan nan nan nan nan nan nan nan nan nan nan nan nan nan nan nan nan nan nan nan nan nan nan nan nan nan nan nan nan nan nan nan nan nan nan nan
nan nan nan nan nan nan nan nan nan nan nan nan nan nan nan nan nan nan nan nan nan nan nan nan nan nan nan nan nan nan nan nan nan nan nan nan nan nan nan nan nan nan nan
nan nan nan nan nan nan nan nan nan nan nan nan nan nan nan nan nan nan nan nan nan nan nan nan nan nan nan nan nan nan nan nan nan nan nan nan nan nan nan nan nan nan nan
nan nan nan nan nan nan nan nan nan nan nan nan nan nan nan nan nan nan nan nan nan nan nan nan nan nan nan nan nan nan nan nan nan nan nan nan nan nan nan nan nan nan nan
nan nan nan nan nan nan nan nan nan nan nan nan nan nan nan nan nan nan nan nan nan nan nan nan nan nan nan nan nan nan nan nan nan nan nan nan nan nan nan nan nan nan nan
nan nan nan nan nan nan nan nan nan nan nan nan nan nan nan nan nan nan nan 2.6 2.7 3.1 3.4 2.5 nan nan nan nan nan nan nan nan nan nan nan nan nan nan nan nan nan nan nan
nan nan nan nan nan nan nan nan nan nan nan nan nan nan nan nan nan 4.0 2.7 2.8 2.7 2.5 2.6 2.9 nan nan nan nan nan nan nan nan nan nan nan nan nan nan nan nan nan nan nan
nan nan nan nan nan nan nan nan nan nan nan nan nan nan nan nan nan 2.7 4.6 4.3 2.7 2.5 2.5 1.7 nan nan nan nan nan nan nan nan nan nan nan nan nan nan nan nan nan nan nan
nan nan nan nan nan nan nan nan nan nan nan nan nan nan nan 0.0 2.8 3.5 3.3 4.6 4.5 5.4 4.9 4.6 3.3 nan nan nan nan nan nan nan nan nan nan nan nan nan nan nan nan nan nan
nan nan nan nan nan nan nan nan nan nan nan nan nan 3.0 nan nan nan nan 4.1 5.1 5.8 6.3 5.3 4.8 4.7 4.0 2.5 3.0 3.4 nan nan nan nan nan nan nan nan nan nan nan nan nan nan
nan nan nan nan nan nan nan nan nan 3.2 nan 3.2 nan 3.3 3.5 3.5 3.3 3.5 3.8 4.7 5.8 6.9 6.3 5.8 4.7 4.7 4.6 4.4 4.1 nan 3.5 nan nan nan nan nan nan nan nan nan nan nan nan
2.5 0.0 2.8 2.3 2.1 1.7 5.0 nan 3.2 3.3 3.6 3.6 3.9 3.9 3.8 3.8 3.9 3.3 nan nan 4.3 5.9 6.1 6.1 6.2 5.2 5.0 4.5 4.0 4.1 4.4 nan nan nan nan nan nan nan nan nan nan nan nan
2.6 3.2 3.0 3.4 3.0 2.7 2.9 3.3 3.6 3.6 3.9 3.8 4.0 3.9 4.1 4.1 3.9 nan nan nan nan 4.4 5.6 5.7 5.7 5.6 5.3 4.9 4.4 4.7 4.9 nan nan nan nan nan nan nan nan nan nan nan nan
3.2 3.4 3.1 3.0 3.0 3.1 3.4 3.7 3.9 3.8 4.2 4.2 4.1 4.1 4.4 4.2 4.3 4.0 3.7 2.9 5.0 4.1 5.4 6.4 5.7 5.6 5.4 5.6 4.9 5.1 4.9 5.1 5.1 nan nan nan nan nan nan nan nan nan nan
3.1 2.9 2.8 3.2 3.3 3.6 3.6 3.8 4.0 4.1 4.3 4.3 4.3 4.3 4.3 3.6 4.2 3.8 3.8 4.3 4.5 4.7 5.4 6.7 6.4 6.5 6.0 5.8 6.1 6.1 5.8 5.3 5.4 nan nan nan nan nan nan nan nan nan nan
3.0 2.8 3.4 3.7 3.7 3.6 3.6 4.0 4.2 4.2 4.2 4.3 4.2 4.2 4.4 4.3 4.4 4.3 4.3 4.6 4.8 4.9 5.2 6.3 7.6 6.3 6.4 6.4 6.5 6.2 6.4 6.7 5.8 nan nan nan nan nan nan nan nan nan nan
3.3 3.3 3.2 3.2 3.3 3.2 3.4 3.2 4.0 4.1 4.0 4.0 3.8 3.9 4.0 4.2 4.4 4.5 4.8 5.2 5.3 5.5 5.7 6.2 7.2 7.7 7.5 7.3 6.6 7.2 7.3 6.8 7.1 6.4 nan nan nan nan nan nan nan nan nan
3.6 3.8 3.8 4.2 4.2 4.3 4.1 4.1 4.1 4.4 4.8 5.0 5.2 5.0 4.8 3.7 nan nan 5.2 5.5 5.7 6.0 6.0 6.7 7.3 7.7 8.0 7.6 7.1 7.0 7.3 8.2 9.0 8.0 7.7 7.8 7.7 8.0 7.1 nan nan nan nan
5.2 4.9 4.8 4.5 4.7 4.3 nan nan 4.8 5.1 5.0 5.3 5.6 5.4 5.1 4.6 4.9 nan nan nan nan 6.2 7.4 6.4 7.0 7.2 8.6 6.8 6.9 7.1 7.8 8.1 8.6 7.9 7.9 8.1 7.0 6.3 5.1 4.7 nan nan nan
5.0 5.3 5.7 5.0 4.9 4.6 nan nan nan 5.1 5.5 5.5 5.6 5.9 6.1 5.8 3.6 4.9 nan nan nan nan nan 6.2 7.4 7.1 8.6 8.3 7.9 8.7 8.1 6.9 6.8 7.1 7.0 7.2 6.0 5.8 4.7 5.8 nan nan nan
4.7 4.8 4.5 5.0 4.9 3.4 nan nan nan 5.6 6.7 6.7 6.4 6.5 6.0 6.2 5.5 6.3 7.1 7.5 7.6 7.1 6.8 6.2 6.3 7.5 6.9 6.9 7.1 7.1 7.8 9.1 7.4 6.9 6.2 7.5 6.5 6.4 5.7 5.0 nan nan nan
6.9 6.6 5.2 5.2 4.7 4.3 nan nan 5.7 6.1 6.7 5.8 5.6 5.0 5.4 5.2 nan nan 8.0 7.2 7.2 7.3 nan nan nan nan nan nan nan 4.8 5.1 5.4 6.4 6.5 5.5 5.6 5.8 6.8 5.9 6.0 4.9 nan nan
6.7 5.8 6.6 6.5 3.7 5.3 nan nan nan 4.5 4.9 5.2 6.1 5.5 3.2 5.0 nan nan 7.3 7.4 7.2 7.6 7.0 4.5 6.0 5.6 nan nan nan 5.7 4.9 6.1 6.6 7.1 6.4 8.2 6.6 6.6 9.0 6.0 6.1 4.8 4.3